Station DCXA2 - Devils Cove Image indicating link to RSS feed of recent meteorological observations for station DCXA2


Conditions at DCXA2 as of
(5:52 pm AKDT on 05/07/2026)
0152 GMT on 05/08/2026:
     

Click on the graph icon in the table below to see a time series plot of the last five days of that observation.

5-day plot - Wind Direction Wind Direction (WDIR): E ( 100 deg true )
5-day plot - Wind Speed Wind Speed (WSPD): 8.9 kts
5-day plot - Wind Gust Wind Gust (GST): 14.0 kts
5-day plot - Atmospheric Pressure Atmospheric Pressure (PRES):29.92 in
5-day plot - Air Temperature Air Temperature (ATMP): 44.4 °F
5-day plot - Dew Point Dew Point (DEWP): 33.8 °F
5-day plot - Wind Chill Wind Chill (CHILL): 39.0 °F
5-day plot - Wind Speed at 10 Meters Wind Speed at 10 meters (WSPD10M): 9.7 kts
5-day plot - Wind Speed at 20 Meters Wind Speed at 20 meters (WSPD20M): 9.7 kts
5-day plot -  Wind Speed, Wind Gust and Atmospheric Pressure Combined plot of Wind Speed, Gust, and Air Pressure
Previous observations
TIME
(AKDT)
5-day plot - Wind Direction
WDIR
 
5-day plot - Wind Speed
WSPD
kts
5-day plot - Wind Gust
GST
kts
5-day plot - Wave Height
WVHT
ft
5-day plot - Dominant Wave Period
DPD
sec
5-day plot - Average Wave Period
APD
sec
5-day plot - Mean Wave Direction
MWD
 
5-day plot - Atmospheric Pressure
PRES
in
5-day plot - Pressure Tendency
PTDY
in
5-day plot - Air Temperature
ATMP
°F
5-day plot - Water Temperature
WTMP
°F
5-day plot - Dew Point
DEWP
°F
5-day plot - Salinity
SAL
psu
5-day plot - Visibility
VIS
nmi
5-day plot - Tide (above MLLW)
TIDE
ft
2026-05-07 05:42 pmENE 6.0 14.0----29.93- 46.4- 33.3---
2026-05-07 05:32 pm E 6.0 13.0----29.93- 45.5- 34.9---
2026-05-07 05:22 pm NE 6.0 17.1----29.93- 46.9- 32.9---
2026-05-07 05:12 pm E 8.0 17.1----29.93- 45.0- 34.0---
2026-05-07 05:02 pmESE 7.0 18.1----29.93- 45.1- 35.2---
2026-05-07 04:52 pmESE 6.0 11.1----29.95- 44.8- 35.6---
2026-05-07 04:42 pm SE 7.0 13.0----29.94- 43.9- 35.1---
2026-05-07 04:32 pmSSE 7.0 11.1----29.95- 43.3- 36.0---
2026-05-07 04:22 pm SE 7.0 11.1----29.96- 43.0- 35.6---
2026-05-07 04:12 pmSSE 7.0 12.0----29.96- 43.0- 34.5---
2026-05-07 04:02 pm SE 7.0 12.0----29.96- 42.8- 34.7---
2026-05-07 03:52 pm SE 8.9 14.0----29.96- 42.6- 34.5---
2026-05-07 03:42 pm SE 8.9 13.0----29.96- 41.9- 34.2---
2026-05-07 03:32 pm SE 8.9 14.0----29.97- 41.9- 33.8---
2026-05-07 03:22 pm SE 8.9 14.0----29.97- 41.9- 34.2---
2026-05-07 03:12 pm SE 8.9 14.0----29.98- 41.4- 34.7---
2026-05-07 03:02 pmESE 9.9 13.0----29.98- 41.2- 34.5---
2026-05-07 02:52 pmESE 9.9 14.0----29.98- 41.2- 33.8---
2026-05-07 02:42 pmESE 9.9 15.0----29.98- 41.2- 34.2---
2026-05-07 02:32 pm SE 8.0 14.0----29.98- 41.4- 33.6---
2026-05-07 02:22 pmSSE 8.0 14.0----29.99- 42.3- 36.1---
2026-05-07 02:12 pmSSE 8.9 15.0----29.98- 41.4- 36.0---
2026-05-07 02:02 pm SE 8.9 14.0----29.98- 42.1- 36.0---
2026-05-07 01:52 pmSSE 8.9 14.0----29.98- 42.1- 36.0---
2026-05-07 01:42 pmSSE 8.0 14.0----29.99- 40.5- 34.7---
2026-05-07 01:32 pmSSE 8.9 12.0----29.98- 40.1- 34.3---
2026-05-07 01:22 pm SE 8.9 14.0----29.99- 40.1- 34.3---
2026-05-07 01:12 pm SE 8.0 13.0----29.99- 40.5- 34.2---
2026-05-07 01:02 pmSSE 8.0 11.1----29.99- 39.9- 34.0---
2026-05-07 12:52 pmSSE 8.9 12.0----30.00- 40.3- 34.3---
2026-05-07 12:42 pmSSE 8.9 13.0----30.00- 40.3- 34.9---
2026-05-07 12:32 pmSSE 8.0 14.0----30.00- 39.9- 34.2---
2026-05-07 12:22 pmSSE 8.0 11.1----30.00- 40.1- 34.7---
2026-05-07 12:12 pmSSE 8.0 11.1----30.00- 39.4- 33.8---
2026-05-07 12:02 pmSSE 8.0 11.1----30.00- 39.7- 34.3---
2026-05-07 11:52 amSSE 7.0 11.1----30.01- 39.7- 34.7---
2026-05-07 11:42 amSSE 7.0 9.9----30.01- 39.9- 34.5---
2026-05-07 11:32 amSSE 7.0 9.9----30.01- 40.1- 34.7---
2026-05-07 11:22 amSSE 7.0 11.1----30.01- 39.6- 34.2---
2026-05-07 11:12 amSSE 7.0 9.9----30.01- 39.4- 34.3---
2026-05-07 11:02 amSSE 7.0 11.1----30.01- 40.3- 36.1---
2026-05-07 10:52 am SE 7.0 9.9----30.01- 39.9- 35.4---
2026-05-07 10:42 amESE 7.0 9.9----30.01- 39.9- 34.9---
2026-05-07 10:32 am SE 6.0 8.9----30.01- 40.3- 35.2---
2026-05-07 10:22 amSSE 4.1 7.0----30.02- 39.9- 34.5---
2026-05-07 10:12 amSSE 2.9 6.0----30.02- 39.2- 33.3---
2026-05-07 10:02 am S 2.9 4.1----30.02- 39.4- 33.1---
2026-05-07 09:52 amSSW 1.9 2.9----30.02- 39.0- 32.7---
2026-05-07 09:42 amSSW 1.9 4.1----30.02- 38.7- 32.7---
2026-05-07 09:32 amSSW 1.9 4.1----30.01- 38.5- 33.1---
2026-05-07 09:22 amSSW 1.9 4.1----30.03- 39.4- 33.4---
2026-05-07 09:12 am SW 1.9 2.9----30.03- 38.3- 32.0---
2026-05-07 09:02 amWNW 1.9 4.1----30.03- 37.8- 31.3---
2026-05-07 08:52 amWNW 2.9 4.1----30.03- 37.2- 31.6---
2026-05-07 08:42 amWNW 1.9 4.1----30.03- 36.7- 31.5---
2026-05-07 08:32 amWNW 2.9 5.1----30.02- 35.2- 31.1---
2026-05-07 08:22 amWNW 2.9 5.1----30.02- 35.2- 31.5---
2026-05-07 08:12 am W 1.9 4.1----30.02- 35.6- 30.9---
2026-05-07 08:02 am- 0.0 1.9----30.02- 37.6- 31.3---
2026-05-07 07:52 am W 1.0 1.9----30.02- 37.6- 32.0---
2026-05-07 07:42 am- 0.0 1.9----30.02- 37.8- 31.5---
2026-05-07 07:32 amNNW 1.9 2.9----30.02- 36.3- 30.7---
2026-05-07 07:22 am N 1.9 1.9----30.02- 34.9- 30.0---
2026-05-07 07:12 am N 1.9 2.9----30.02- 34.9- 30.0---
2026-05-07 07:02 am N 1.9 4.1----30.02- 33.6- 28.9---
2026-05-07 06:52 amNNW 2.9 4.1----30.02- 34.2- 28.9---
2026-05-07 06:42 amWNW 1.0 2.9----30.02- 35.1- 29.8---
2026-05-07 06:32 amWNW 1.9 2.9----30.02- 34.7- 30.7---
2026-05-07 06:22 am NW 2.9 2.9----30.02- 33.8- 29.5---
2026-05-07 06:12 amNNW 1.9 2.9----30.02- 33.8- 29.5---
2026-05-07 06:02 amNNE 1.0 1.9----30.02- 33.3- 29.3---
2026-05-07 05:52 amWNW 1.9 4.1----30.02- 33.3- 29.5---
2026-05-07 05:42 amNNW 2.9 4.1----30.02- 33.4- 29.5---
2026-05-07 05:32 amNNW 1.9 2.9----30.03- 32.9- 28.9---
2026-05-07 05:22 amWNW 1.9 2.9----30.03- 34.3- 30.0---
2026-05-07 05:12 am N 1.9 2.9----30.02- 32.7- 28.4---
2026-05-07 05:02 am NW 2.9 5.1----30.02- 33.1- 29.3---
2026-05-07 04:52 amNNW 1.9 2.9----30.02- 33.4- 29.5---
2026-05-07 04:42 am N 1.9 4.1----30.02- 32.9- 28.9---
2026-05-07 04:32 amNNW 1.0 2.9----30.03- 35.1- 30.2---
2026-05-07 04:22 amWNW 1.9 4.1----30.03- 34.9- 30.6---
2026-05-07 04:12 am NW 2.9 4.1----30.03- 34.0- 30.2---
2026-05-07 04:02 amNNW 1.9 2.9----30.03- 34.7- 29.1---
2026-05-07 03:52 am N 1.9 2.9----30.03- 35.8- 30.6---
2026-05-07 03:42 am NW 1.9 4.1----30.03- 34.9- 30.6---
2026-05-07 03:32 am NW 2.9 5.1----30.03- 34.7- 30.9---
2026-05-07 03:22 am N 2.9 4.1----30.03- 35.6- 30.9---
2026-05-07 03:12 amNNE 4.1 5.1----30.03- 36.0- 30.4---
2026-05-07 03:02 amNNE 4.1 5.1----30.04- 36.1- 30.9---
2026-05-07 02:52 amNNE 4.1 5.1----30.04- 36.1- 31.1---
2026-05-07 02:42 amNNE 4.1 5.1----30.04- 36.1- 30.9---
2026-05-07 02:32 amNNE 4.1 5.1----30.04- 35.4- 30.2---
2026-05-07 02:22 amNNE 2.9 5.1----30.04- 35.1- 29.8---
2026-05-07 02:12 amESE 1.9 2.9----30.04- 37.0- 31.5---
2026-05-07 02:02 amNNW 1.9 2.9----30.04- 37.2- 31.3---
2026-05-07 01:52 am N 1.9 2.9----30.04- 37.0- 31.1---
2026-05-07 01:42 amNNE 2.9 5.1----30.04- 37.2- 30.9---
2026-05-07 01:32 am- 0.0 1.9----30.04- 39.7- 32.7---
2026-05-07 01:22 amWNW 1.9 2.9----30.04- 39.0- 32.7---
2026-05-07 01:12 am NW 2.9 4.1----30.04- 38.7- 32.7---
2026-05-07 01:02 am NW 1.0 4.1----30.04- 39.6- 33.3---
2026-05-07 12:52 am NW 2.9 4.1----30.03- 39.0- 33.1---
2026-05-07 12:42 amWNW 4.1 6.0----30.03- 39.6- 33.3---
2026-05-07 12:32 amWNW 2.9 5.1----30.03- 39.7- 33.4---
2026-05-07 12:22 amWNW 2.9 5.1----30.03- 39.6- 33.3---
2026-05-07 12:12 amWNW 4.1 5.1----30.03- 39.7- 33.1---
2026-05-07 12:02 amWNW 4.1 5.1----30.04- 39.7- 32.7---
2026-05-06 11:52 pmNNW 1.9 5.1----30.03- 39.2- 33.3---
2026-05-06 11:42 pm N 1.9 2.9----30.03- 39.9- 32.0---
2026-05-06 11:32 pm- 0.0 1.9----30.04- 41.0- 32.4---
2026-05-06 11:22 pmNNE 1.9 2.9----30.03- 39.6- 30.9---
2026-05-06 11:12 pmNNE 2.9 4.1----30.03- 39.4- 31.1---
2026-05-06 11:02 pm NE 2.9 4.1----30.03- 39.6- 30.9---
2026-05-06 10:52 pm NE 2.9 2.9----30.03- 39.9- 30.9---
2026-05-06 10:42 pmNNE 2.9 4.1----30.03- 39.9- 30.9---
2026-05-06 10:32 pmNNE 2.9 4.1----30.02- 39.9- 31.3---
2026-05-06 10:22 pmNNE 2.9 5.1----30.02- 39.9- 31.3---
2026-05-06 10:12 pmNNE 4.1 5.1----30.02- 39.7- 31.8---
2026-05-06 10:02 pmNNE 4.1 5.1----30.02- 40.3- 32.4---
2026-05-06 09:52 pmNNE 2.9 5.1----30.02- 40.3- 32.9---
2026-05-06 09:42 pm NE 2.9 4.1----30.02- 41.0- 33.6---
2026-05-06 09:32 pm E 1.9 4.1----30.02- 41.7- 34.0---
2026-05-06 09:22 pm E 2.9 5.1----30.02- 41.7- 34.7---
2026-05-06 09:12 pm E 4.1 6.0----30.01- 41.9- 34.5---
2026-05-06 09:02 pm E 2.9 4.1----30.02- 42.4- 32.5---
2026-05-06 08:52 pm E 2.9 4.1----30.02- 42.3- 33.8---
2026-05-06 08:42 pm E 4.1 5.1----30.01- 42.3- 34.9---
2026-05-06 08:32 pm E 4.1 6.0----30.01- 42.3- 34.9---
2026-05-06 08:22 pmESE 2.9 6.0----30.01- 42.8- 32.9---
2026-05-06 08:12 pmSSE 2.9 5.1----30.01- 42.8- 32.9---
2026-05-06 08:02 pmSSE 4.1 6.0----30.01- 42.6- 33.4---
2026-05-06 07:52 pm SE 6.0 8.9----30.01- 43.2- 34.0---
2026-05-06 07:42 pm SE 5.1 8.0----30.01- 43.0- 34.2---
2026-05-06 07:32 pm SE 5.1 8.0----30.01- 44.1- 32.2---
2026-05-06 07:22 pmSSE 4.1 6.0----30.01- 43.7- 32.7---
2026-05-06 07:12 pmSSE 4.1 6.0----30.01- 44.1- 33.4---
2026-05-06 07:02 pmSSE 2.9 5.1----30.01- 43.5- 32.5---
2026-05-06 06:52 pm S 4.1 6.0----30.01- 43.2- 33.3---
2026-05-06 06:42 pmSSE 4.1 6.0----30.01- 43.0- 32.7---
2026-05-06 06:32 pmSSE 5.1 7.0----30.01- 43.0- 33.8---
2026-05-06 06:22 pmSSE 5.1 7.0----30.01- 43.2- 33.6---
2026-05-06 06:12 pmSSE 5.1 7.0----30.01- 42.8- 33.3---
2026-05-06 06:02 pm S 6.0 8.9----30.01- 42.6- 32.7---
2026-05-06 05:52 pmSSE 6.0 9.9----30.01- 42.6- 34.5---